OpenBCM V2.0.3 (Linux)

Packet Radio Mailbox

IZ3LSV

[San Dona' di P. JN]

 Login: GUEST





  
I0OJJ  > AMSAT    15.05.26 02:50l 331 Lines 15669 Bytes #999 (0) @ WW
BID : A5N6U_I0OJJ
Read: GUEST
Subj: 2Line Orbital Elements
Path: IZ3LSV<I0OJJ
Sent: 260515/0020z @:I0OJJ.ITA.EU [Rome] $:A5N6U_I0OJJ

>From i0ojj@i0ojj.ampr.org Fri May 15 02:20:26 2026
Received: from i0ojj.ampr.org by i0ojj.ampr.org (JNOS2.0q.1) with SMTP
	id AA17059494 ; Fri, 15 May 2026 02:20:26 +0200
Received: by i0ojj.ampr.org with SMTP
	id AA17059491 ; Fri, 15 May 2026 02:20:17 +0200
Message-Id: <17059492@i0ojj.ampr.org>
>From: i0ojj@i0ojj.ampr.org

SB KEPS @ AMSAT  $ORB26134.1
2Line Orbital Elements 26134.AMSAT

QST de W1STR

AMSAT Orbital Elements for Amateur Satellites in TLE Format
>From Orbital Analysis Office
New England Sci-Tech STEM Education Center
Natick MA May 14, 2026
To all radio amateurs


These element sets describe the orbits of various satellites 
in use by the amateur radio community. For details see:
www.amsat.org/keplerian-elements-formats/

A daily update of element sets is available at:
www.amsat.org/tle/daily-bulletin.txt
or without bulletin text:
www.amsat.org/tle/dailytle.txt


AO-07
1 07530U 74089B   26133.53447690 -.00000030  00000-0  10386-3 0  9991
2 07530 101.9916 146.4183 0012154 195.4987 333.0171 12.53697507356172
UO-11
1 14781U 84021B   26133.45203940  .00000849  00000-0  92245-4 0  9995
2 14781  97.8037  99.4225 0006305 306.6451  53.4187 14.90698287251951
AO-27
1 22825U 93061C   26133.17764638  .00000044  00000-0  33770-4 0  9997
2 22825  98.6891 200.6008 0008065 195.5210 164.5726 14.30932290701990
FO-29
1 24278U 96046B   26133.56109654 -.00000014  00000-0  21469-4 0  9991
2 24278  98.5277 347.1695 0349746 186.1353 173.5447 13.53272352468482
GO-32
1 25397U 98043D   26133.50474968  .00000028  00000-0  32496-4 0  9996
2 25397  99.0065 125.3907 0000980  12.1123 348.0079 14.24421378446394
ISS
1 25544U 98067A   26133.42450845  .00004975  00000-0  97698-4 0  9995
2 25544  51.6312 112.1826 0007529  54.1813 305.9874 15.49204198566361
NO-44
1 26931U 01043C   26133.72536925  .00000058  00000-0  52471-4 0  9999
2 26931  67.0511 333.4061 0006276 263.6996  96.3391 14.31942188285518
SO-50
1 27607U 02058C   26133.49414855  .00000609  00000-0  89699-4 0  9992
2 27607  64.5522 236.3170 0075641 268.8072  90.4367 14.82971209259318
CO-55
1 27844U 03031E   26133.47488448  .00000193  00000-0  10262-3 0  9991
2 27844  98.6747 142.4698 0008333 288.8739  71.1536 14.24313421186737
RS-22
1 27939U 03042A   26133.85934169  .00000695  00000-0  11547-3 0  9990
2 27939  98.3473 317.2510 0011844  23.7677  86.8051 14.73405039210495
CO-65
1 32785U 08021C   26133.83980273  .00003175  00000-0  20423-3 0  9991
2 32785  97.8259 114.5575 0010067 137.6761 222.5246 15.09111298980018
CO-66
1 32791U 08021J   26133.52050985  .00011334  00000-0  37469-3 0  9996
2 32791  97.7522 129.7991 0004988  83.2140 276.9668 15.31529848981986
RS-30
1 32953U 08025A   26133.81480891 -.00000089  00000-0 -71191-3 0  9992
2 32953  82.5073  16.8215 0020293  28.6996 331.5196 12.43177471815423
SRMSAT
1 37841U 11058D   26133.43846406  .00000365  00000-0  54247-4 0  9998
2 37841  19.9724 269.8009 0011672 181.4461 226.2347 14.11567807752902
ZACUBE-1
1 39417U 13066B   26133.87678757  .00003054  00000-0  24041-3 0  9996
2 39417  97.8119  96.0275 0041751   8.5716 351.6211 15.00914346675588
Delfi-N3xt
1 39428U 13066N   26133.30401535  .00004310  00000-0  38198-3 0  9998
2 39428  97.8343  53.6571 0074097 324.0298  35.5947 14.94675043669416
GOMX-1
1 39430U 13066Q   26133.79668815  .00001066  00000-0  16683-3 0  9990
2 39430  97.6514 336.4283 0128519 187.3139 172.6197 14.69318956664865
LO-74
1 39440U 13066AA  26133.42777407  .00001579  00000-0  15075-3 0  9992
2 39440  97.8890  82.2722 0058866 141.3076 219.2383 14.93493448671800
AO-73
1 39444U 13066AE  26133.84599566  .00005264  00000-0  33223-3 0  9990
2 39444  97.8259 104.5913 0035257 323.3687  36.5131 15.09031555674485
DTUSAT-2
1 40030U 14033W   26133.49150729  .00004181  00000-0  23068-3 0  9996
2 40030  98.0865 129.0307 0007856   7.3878 352.7466 15.14549083647433
LILACSAT-2
1 40908U 15049K   26133.81663791  .00011678  00000-0  20787-3 0  9996
2 40908  97.4695 169.3757 0007534  34.6178 325.5563 15.50273760590424
Horyu-4
1 41340U 16012D   26133.68948448  .00132750  00000-0  72995-3 0  9991
2 41340  30.9895 328.5166 0005336  30.7718 329.3251 15.78201025565330
Lapan A3
1 41603U 16040E   26133.85674774  .00002263  00000-0  73473-4 0  9999
2 41603  97.1488 131.1384 0011707 131.7491 228.4755 15.32882113549551
CAS-2T
1 41847U 16066G   26133.67768687  .00000529  00000-0  84326-4 0  9996
2 41847  98.3825 209.8046 0341094 234.1544 122.7521 14.44591761499817
TechnoSat
1 42829U 17042E   26133.47280678  .00001729  00000-0  12655-3 0  9997
2 42829  97.4240 292.4657 0017041 208.6281 151.4011 15.04732674481485
AO-91
1 43017U 17073E   26133.14210922  .00005670  00000-0  24989-3 0  9992
2 43017  97.4759   1.0860 0154122  89.6523 272.2366 15.12056378460096
S-Net D
1 43186U 18014G   26133.55663534  .00003179  00000-0  16729-3 0  9996
2 43186  97.5393  38.5683 0009607 130.3401 229.8672 15.16332908453519
S-Net B
1 43187U 18014H   26133.69939625  .00003049  00000-0  16071-3 0  9995
2 43187  97.5397  38.6956 0010349 126.3271 233.8918 15.16304152453533
S-Net A
1 43188U 18014J   26133.29172530  .00003006  00000-0  15833-3 0  9994
2 43188  97.5407  38.4927 0010205 128.1779 232.0374 15.16337876453475
S-Net C
1 43189U 18014K   26133.30713307  .00002748  00000-0  14519-3 0  9992
2 43189  97.5425  38.5774 0011693 122.6220 237.6143 15.16292411452029
Ten-Koh
1 43677U 18084G   26133.50140080  .00000670  00000-0  55038-4 0  9999
2 43677  98.0763 324.4088 0008281 229.6912 130.3589 15.02777588410959
PO-101
1 43678U 18084H   26133.82362525  .00001715  00000-0  14199-3 0  9998
2 43678  98.1106 328.5591 0011927 289.7056  70.2879 15.00276430411068
QO-100
1 43700U 18090A   26133.82491162  .00000158  00000-0  00000+0 0  9993
2 43700   0.0131 272.0629 0001558 175.0833 107.2537  1.00274598 27331
MinXSS-2
1 43758U 18099A   26133.71548767  .00022104  00000-0  47612-3 0  9996
2 43758  97.4551 209.0529 0007426  41.3330 318.8479 15.44592940408803
AO-95
1 43770U 18099N   26133.13417852  .00006585  00000-0  25914-3 0  9992
2 43770  97.4410 193.5273 0010453 110.5919 249.6442 15.25925564407878
SNUSat 2
1 43782U 18099AA  26133.60971510  .00005230  00000-0  23657-3 0  9991
2 43782  97.4088 187.5347 0011667  63.3440 296.8989 15.21286961407775
SnugLite
1 43784U 18099AC  26133.86628796  .00007538  00000-0  29238-3 0  9990
2 43784  97.3900 188.5004 0004151  70.8038 289.3649 15.26398249408089
ITASat 1
1 43786U 18099AE  26133.10365259  .00004108  00000-0  20143-3 0  9997
2 43786  97.4059 185.3231 0014352 113.5192 246.7551 15.18586233407580
EAGLET 1
1 43790U 18099AJ  26133.59138361  .00002281  00000-0  13386-3 0  9998
2 43790  97.4261 184.1787 0012890 104.3962 255.8701 15.12663081407108
ESEO
1 43792U 18099AL  26133.85452470  .00001646  00000-0  12269-3 0  9992
2 43792  97.3998 172.7102 0013404  91.1733 269.1030 15.04135866406648
JO-97
1 43803U 18099AX  26133.63249072  .00010629  00000-0  34067-3 0  9994
2 43803  97.4156 196.3739 0006317  48.8793 311.2993 15.32520936408338
Suomi 100
1 43804U 18099AY  26133.10471001  .00006879  00000-0  25739-3 0  9994
2 43804  97.4215 193.6469 0010987  52.5608 307.6629 15.27582009408068
ISAT
1 43879U 18111D   26133.76532868  .00051965  00000-0  65040-3 0  9997
2 43879  97.5898  66.5029 0008213  80.9874 279.2312 15.59605424405799
UWE-4
1 43880U 18111E   26133.30495299  .00018936  00000-0  41701-3 0  9994
2 43880  97.5858  60.1511 0010673  91.3631 268.8840 15.43940846405392
Sparrow
1 43881U 18111F   26133.38724431  .00075778  00000-0  74211-3 0  9995
2 43881  97.6124  71.1844 0007611 106.2614 253.9483 15.65842908405916
Prox-1
1 44339U 19036A   26133.70581922  .00008535  00000-0  83965-3 0  9996
2 44339  23.9965 344.4274 0006547 355.3870   4.6569 14.89772248368324
Taurus 1
1 44530U 19059C   26133.84494938  .00002292  00000-0  37633-3 0  9994
2 44530  98.6387 296.5590 0009377  66.0539 294.1647 14.71709585353595
TO-108
1 44881U 19093C   26133.84918448  .00000261  00000-0  35592-4 0  9995
2 44881  97.7539 206.9179 0012988 193.8105 166.2758 14.86460658346316
RS-44
1 44909U 19096E   26133.37073068  .00000014  00000-0  17760-4 0  9990
2 44909  82.5240   2.8443 0216652 225.6057 132.7128 12.79748094297899
SALSAT
1 46495U 20068K   26133.86472838  .00005305  00000-0  18943-3 0  9996
2 46495  97.8856 134.8553 0011464  68.2062 292.0395 15.29275002310111
CSS (TIANHE-1)
1 48274U 21035A   26133.47815922  .00012315  00000-0  13972-3 0  9996
2 48274  41.4670 173.0841 0004122 296.9881  63.0537 15.62173368287749
CUTE
1 49263U 21088D   26133.22361485  .00124740  00000-0  71034-3 0  9995
2 49263  97.4192 229.5484 0001685 271.3209  88.7865 15.78597278257012
TeikyoSat 4
1 49396U 21102B   26133.51643554  .00001125  00000-0  74141-4 0  9995
2 49396  97.3697 164.3465 0013487  57.3904 302.8625 15.09379418247493
Z-Sat
1 49399U 21102E   26133.85739705  .00001171  00000-0  60671-4 0  9993
2 49399  97.3360 170.2246 0016970  13.6490 346.5200 15.17989702248230
KOSEN 1
1 49402U 21102H   26133.85990139  .00004911  00000-0  19141-3 0  9998
2 49402  97.3217 176.6917 0012681 335.8232  24.2410 15.26345575248786
HO-113
1 50466U 21131B   26133.83051895  .00000301  00000-0  10667-3 0  9990
2 50466  98.4955 226.4097 0003878 184.0510 176.0648 14.41323082230160
SNUGLITE 2
1 52899U 22065F   26133.38664902  .00000594  00000-0  12174-3 0  9997
2 52899  98.2155 278.2894 0008569 128.0619 232.1358 14.64279470205904
UmKA 1 (RS40S)
1 57172U 23091G   26133.80922696  .00003638  00000-0  16988-3 0  9999
2 57172  97.5075 192.6453 0011597 234.7663 125.2487 15.20409140158785
CubeBel-2 (EU11S)
1 57175U 23091K   26133.81902418  .00007501  00000-0  27439-3 0  9999
2 57175  97.5075 196.7486 0009011 229.0050 131.0410 15.28320024159057
